Tracking 19854 objects as of 24-Sep-2019
HD Live streaming from Space Station
objects crossing your sky now

BREEZE-M R/B

Track BREEZE-M R/B now!


NORAD ID: 28869
Int'l Code: 2005-036B
Perigee: 3,177.6 km
Apogee: 35,476.6 km
Inclination: 10.4 °
Period: 683.3 minutes
Semi major axis: 25698 km
RCS: 6.7821 m2 (large)
Launch date: September 8, 2005
Source: Commonwealth of Independent States (former USSR) (CIS)
Launch site: TYURATAM MISSILE AND SPACE COMPLEX (TTMTR)

Note: This is a ROCKET BODY
aabbcc
Your satellite tracking list
Your tracking list is empty




NASA's NSSDC Master Catalog

Two Line Element Set (TLE):
1 28869U 05036B   19266.75099735 -.00000169 +00000-0 +00000-0 0  9993
2 28869 010.4082 332.4200 6284307 282.7343 017.8547 02.10741642108056
Source of the keplerian elements: AFSPC